• In Czech Republic
  • List of Countries
  • For 7 days
  • Water Temperature
  • Satellite Maps
  • Weather Map
  • Weather Widgets
  • user-avatar
    Login

    Hourly Weather Takeo

    Today, 21 October, Saturday

    Time Temperature Precipitation Wind Pressure Humidity
    00:00 +29°C° 0 mm 1 mps 757 mmHg 84%
    01:00 +28°C° 0 mm 1 mps 757 mmHg 85%
    02:00 +28°C° 0 mm 1 mps 757 mmHg 85%
    03:00 +28°C° 0 mm 1 mps 756 mmHg 86%
    04:00 +28°C° 0 mm 1 mps 756 mmHg 87%
    05:00 +28°C° 0 mm 1 mps 757 mmHg 86%
    06:00 +28°C° 0 mm 1 mps 757 mmHg 85%
    07:00 +28°C° 0 mm 1 mps 757 mmHg 84%
    08:00 +30°C° 0 mm 2 mps 757 mmHg 78%
    09:00 +31°C° 0 mm 2 mps 758 mmHg 71%
    10:00 +34°C° 0 mm 2 mps 758 mmHg 65%
    11:00 +34°C° 0.4 mm 2 mps 757 mmHg 61%
    12:00 +35°C° 0.4 mm 2 mps 756 mmHg 58%
    13:00 +36°C° 0.4 mm 2 mps 756 mmHg 54%
    14:00 +36°C° 0.8 mm 2 mps 755 mmHg 56%
    15:00 +35°C° 0.8 mm 2 mps 755 mmHg 58%
    16:00 +34°C° 0.8 mm 1 mps 754 mmHg 59%
    17:00 +34°C° 0.4 mm 2 mps 755 mmHg 65%
    18:00 +31°C° 0.4 mm 2 mps 755 mmHg 72%
    19:00 +30°C° 0.4 mm 3 mps 755 mmHg 78%
    20:00 +30°C° 0.2 mm 2 mps 756 mmHg 80%
    21:00 +29°C° 0.2 mm 2 mps 756 mmHg 81%
    22:00 +29°C° 0.2 mm 2 mps 757 mmHg 83%
    23:00 +29°C° 0.2 mm 1 mps 757 mmHg 83%

    Tomorrow, 22 October, Sunday

    Time Temperature Precipitation Wind Pressure Humidity
    00:00 +29°C° 0.2 mm 1 mps 757 mmHg 84%
    01:00 +28°C° 0.2 mm 1 mps 756 mmHg 84%
    02:00 +28°C° 0.2 mm 1 mps 756 mmHg 84%
    03:00 +28°C° 0.2 mm 1 mps 756 mmHg 84%
    04:00 +26°C° 0.2 mm 0 mps 755 mmHg 84%
    05:00 +26°C° 0.6 mm 0 mps 756 mmHg 83%
    06:00 +27°C° 0.6 mm 0 mps 756 mmHg 81%
    07:00 +27°C° 0.6 mm 0 mps 757 mmHg 80%
    08:00 +30°C° 0.6 mm 1 mps 757 mmHg 74%
    09:00 +32°C° 0.6 mm 1 mps 757 mmHg 68%
    10:00 +33°C° 0.6 mm 1 mps 757 mmHg 62%
    11:00 +34°C° 0.4 mm 1 mps 757 mmHg 60%
    12:00 +34°C° 0.4 mm 1 mps 756 mmHg 57%
    13:00 +35°C° 0.4 mm 1 mps 755 mmHg 55%
    14:00 +34°C° 0.7 mm 1 mps 755 mmHg 58%
    15:00 +35°C° 0.7 mm 2 mps 754 mmHg 61%
    16:00 +34°C° 0.7 mm 3 mps 754 mmHg 64%
    17:00 +33°C° 0.7 mm 3 mps 755 mmHg 70%
    18:00 +31°C° 0.7 mm 2 mps 755 mmHg 76%
    19:00 +29°C° 0.7 mm 2 mps 756 mmHg 82%
    20:00 +29°C° 0.3 mm 2 mps 756 mmHg 83%
    21:00 +29°C° 0.3 mm 2 mps 757 mmHg 84%
    22:00 +29°C° 0.3 mm 1 mps 757 mmHg 84%
    23:00 +29°C° 0.1 mm 1 mps 757 mmHg 85%

    Day after tomorrow, 23 October, Monday

    Time Temperature Precipitation Wind Pressure Humidity
    00:00 +28°C° 0.1 mm 1 mps 757 mmHg 86%
    01:00 +28°C° 0.1 mm 1 mps 756 mmHg 87%
    02:00 +28°C° 0.5 mm 1 mps 756 mmHg 88%
    03:00 +28°C° 0.5 mm 1 mps 756 mmHg 88%
    04:00 +27°C° 0.5 mm 1 mps 755 mmHg 89%
    05:00 +28°C° 0.3 mm 2 mps 756 mmHg 87%
    06:00 +28°C° 0.3 mm 2 mps 757 mmHg 86%
    07:00 +28°C° 0.3 mm 2 mps 757 mmHg 85%
    08:00 +30°C° 0.3 mm 2 mps 758 mmHg 79%
    09:00 +31°C° 0.3 mm 3 mps 758 mmHg 72%
    10:00 +33°C° 0.3 mm 3 mps 758 mmHg 66%
    11:00 +34°C° 0.8 mm 3 mps 757 mmHg 64%
    12:00 +34°C° 0.8 mm 3 mps 757 mmHg 62%
    13:00 +35°C° 0.8 mm 2 mps 756 mmHg 60%
    14:00 +34°C° 1.1 mm 3 mps 755 mmHg 62%
    15:00 +34°C° 1.1 mm 3 mps 755 mmHg 64%
    16:00 +34°C° 1.1 mm 4 mps 755 mmHg 66%
    17:00 +31°C° 1 mm 3 mps 755 mmHg 71%
    18:00 +30°C° 1 mm 3 mps 756 mmHg 76%
    19:00 +29°C° 1 mm 2 mps 757 mmHg 81%
    20:00 +29°C° 0.3 mm 2 mps 757 mmHg 83%
    21:00 +28°C° 0.3 mm 2 mps 758 mmHg 84%
    22:00 +28°C° 0.3 mm 1 mps 758 mmHg 85%
    23:00 +28°C° 0 mm 1 mps 758 mmHg 86%

    24 October, Tuesday

    Time Temperature Precipitation Wind Pressure Humidity
    00:00 +28°C° 0 mm 1 mps 758 mmHg 87%
    01:00 +28°C° 0 mm 1 mps 758 mmHg 88%
    02:00 +27°C° 0.4 mm 1 mps 758 mmHg 88%
    03:00 +27°C° 0.4 mm 1 mps 757 mmHg 89%
    04:00 +27°C° 0.4 mm 1 mps 757 mmHg 89%
    05:00 +27°C° 0 mm 1 mps 758 mmHg 87%
    06:00 +28°C° 0 mm 1 mps 758 mmHg 86%
    07:00 +28°C° 0 mm 1 mps 759 mmHg 85%
    08:00 +29°C° 0 mm 2 mps 759 mmHg 78%
    09:00 +31°C° 0 mm 2 mps 759 mmHg 71%
    10:00 +33°C° 0 mm 3 mps 759 mmHg 64%
    11:00 +34°C° 0.3 mm 3 mps 759 mmHg 61%
    12:00 +35°C° 0.3 mm 2 mps 758 mmHg 59%
    13:00 +35°C° 0.3 mm 2 mps 757 mmHg 56%
    14:00 +35°C° 0.5 mm 2 mps 757 mmHg 57%
    15:00 +35°C° 0.5 mm 2 mps 756 mmHg 57%
    16:00 +34°C° 0.5 mm 1 mps 756 mmHg 58%
    17:00 +34°C° 0.4 mm 2 mps 757 mmHg 64%
    18:00 +31°C° 0.4 mm 2 mps 757 mmHg 69%
    19:00 +30°C° 0.4 mm 2 mps 758 mmHg 75%
    20:00 +29°C° 0.5 mm 2 mps 758 mmHg 77%
    21:00 +29°C° 0.5 mm 2 mps 759 mmHg 80%
    22:00 +28°C° 0.5 mm 1 mps 759 mmHg 82%
    23:00 +28°C° 0.5 mm 1 mps 759 mmHg 83%

    25 October, Wednesday

    Time Temperature Precipitation Wind Pressure Humidity
    00:00 +28°C° 0.5 mm 1 mps 759 mmHg 83%
    01:00 +28°C° 0.5 mm 1 mps 758 mmHg 84%
    02:00 +28°C° 0 mm 1 mps 758 mmHg 84%
    03:00 +27°C° 0 mm 1 mps 758 mmHg 85%
    04:00 +27°C° 0 mm 1 mps 758 mmHg 86%
    05:00 +27°C° 0 mm 1 mps 759 mmHg 84%
    06:00 +28°C° 0 mm 1 mps 759 mmHg 83%
    07:00 +26°C° 0 mm 0 mps 760 mmHg 81%
    08:00 +29°C° 0 mm 1 mps 760 mmHg 76%
    09:00 +31°C° 0 mm 1 mps 760 mmHg 70%
    10:00 +32°C° 0 mm 2 mps 760 mmHg 65%
    11:00 +34°C° 0 mm 2 mps 759 mmHg 62%
    12:00 +34°C° 0 mm 2 mps 758 mmHg 60%
    13:00 +35°C° 0 mm 2 mps 757 mmHg 57%
    14:00 +35°C° 0 mm 2 mps 757 mmHg 58%
    15:00 +35°C° 0 mm 2 mps 757 mmHg 58%
    16:00 +35°C° 0 mm 2 mps 756 mmHg 59%
    17:00 +34°C° 0.2 mm 2 mps 757 mmHg 63%
    18:00 +32°C° 0.2 mm 2 mps 757 mmHg 66%
    19:00 +31°C° 0.2 mm 2 mps 758 mmHg 70%
    20:00 +30°C° 0.7 mm 2 mps 758 mmHg 74%
    21:00 +29°C° 0.7 mm 2 mps 758 mmHg 78%
    22:00 +29°C° 0.7 mm 2 mps 759 mmHg 81%
    23:00 +28°C° 0.7 mm 2 mps 758 mmHg 82%

    26 October, Thursday

    Time Temperature Precipitation Wind Pressure Humidity
    00:00 +28°C° 0.7 mm 2 mps 758 mmHg 84%
    01:00 +28°C° 0.7 mm 2 mps 758 mmHg 85%
    02:00 +28°C° 0.9 mm 2 mps 758 mmHg 86%
    03:00 +27°C° 0.9 mm 2 mps 758 mmHg 87%
    04:00 +27°C° 0.9 mm 2 mps 758 mmHg 88%
    05:00 +27°C° 0.3 mm 2 mps 758 mmHg 88%
    06:00 +27°C° 0.3 mm 3 mps 758 mmHg 87%
    07:00 +27°C° 0.3 mm 3 mps 759 mmHg 87%
    08:00 +29°C° 0 mm 2 mps 759 mmHg 81%
    09:00 +30°C° 0 mm 2 mps 759 mmHg 75%
    10:00 +32°C° 0 mm 2 mps 759 mmHg 69%
    11:00 +32°C° 0.4 mm 2 mps 758 mmHg 66%
    12:00 +34°C° 0.4 mm 2 mps 757 mmHg 62%
    13:00 +35°C° 0.4 mm 2 mps 756 mmHg 59%
    14:00 +35°C° 0.6 mm 2 mps 756 mmHg 60%
    15:00 +35°C° 0.6 mm 2 mps 756 mmHg 60%
    16:00 +34°C° 0.6 mm 2 mps 755 mmHg 61%
    17:00 +32°C° 0.6 mm 2 mps 756 mmHg 65%
    18:00 +31°C° 0.6 mm 2 mps 756 mmHg 69%
    19:00 +30°C° 0.6 mm 1 mps 757 mmHg 72%
    20:00 +30°C° 0.7 mm 1 mps 757 mmHg 75%
    21:00 +30°C° 0.7 mm 1 mps 757 mmHg 77%
    22:00 +29°C° 0.7 mm 1 mps 758 mmHg 80%
    23:00 +29°C° 0.5 mm 1 mps 757 mmHg 80%
    Show more